www.pogodaiklimat.ru

Погода и климат >> Архив погоды >> КНДР >> Канге


ПОГОДА в Канге

  • Прогноз погоды в Канге
  • Монитор погоды в Канге

АРХИВ ПОГОДЫ в Канге

Время (UTC), дата Ветер
(напр.,м/с)
 
Видим.   Явления Облачность Т
(С)
Тd
(С)
f
(%)
Тe
(С)
Тes
(С)
Комфортность P
(гПа)
Po
(гПа)
Тmin
(С)
Tmax
(С)
R
(мм)
R24
(мм)
S
(см)
06 17.02 штиль 0 20 км ясно -0.6 -6.0 67 -1 +5 1022.7 986.2
09 17.02 штиль 0 20 км ясно -1.2 -7.4 63 -2 -2 1022.0 985.5
12 17.02 штиль 0 20 км ясно -7.6 -10.7 78 -8 -8 1023.4 986.9 +1.4
15 17.02 штиль 0 20 км ясно -10.8 -12.7 86 -11 -11 1025.2 988.7
18 17.02 штиль 0 20 км ясно -13.5 -15.7 83 -14 -14 1025.5 988.9
21 17.02 штиль 0 20 км ясно -14.9 -16.4 88 -15 -15 1026.6 990.0
00 18.02 штиль 0 20 км ясно -14.0 -15.7 87 -14 -11 1026.7 990.1 -17.4 600
03 18.02 штиль 0 20 км 3/0
[Ci sp]
-6.2 -10.3 73 -7 +4 1025.0 988.3
06 18.02 штиль 0 20 км 3/0
[Ci sp]
+2.2 -3.6 65 +2 +8 1021.8 985.3
09 18.02 штиль 0 20 км 8/0
[Ci sp]
+1.0 -4.7 66 0 0 1020.3 983.9
12 18.02 штиль 0 15 км 10/0 1500 м
[Ac trans]
-1.5 -5.4 75 -2 -2 1021.3 984.8 +3.4
15 18.02 штиль 0 15 км 10/0 1500 м
[Ac trans]
-2.6 -6.0 77 -4 -4 1020.7 984.3
18 18.02 штиль 0 10 км 10/10 600 м
[Sc diur, vesp]
-2.9 -6.0 79 -4 -4 1019.3 983.0
21 18.02 штиль 0 15 км 10/10 600 м
[Sc diur, vesp]
-3.4 -5.7 84 -4 -4 1018.1 981.9
00 19.02 штиль 0 15 км 10/10 600 м
[Sc diur, vesp]
-3.0 -5.4 83 -4 -4 1017.1 980.8 -5.1 500
03 19.02 штиль 0 10 км слаб. снег 10/0 600 м
[As op]
-1.3 -3.6 84 -2 -0 1016.6 980.3 0.2
06 19.02 штиль 0 10 км слаб. снег 10/0 600 м
[As op]
+0.2 -1.9 86 -1 0 1014.3 978.2 0.4
09 19.02 штиль 0 10 км слаб. снег 10/0 600 м
[As op]
0.0 -2.2 85 -1 -1 1014.7 978.5 0.0
12 19.02 штиль 0 10 км слаб. снег 10/0 600 м
[As op]
-0.8 -2.7 87 -2 -2 1016.7 980.4 +1.2 0.2
15 19.02 штиль 0 10 км слаб. снег 10/0 600 м
[As op]
-1.2 -3.3 86 -2 -2 1017.7 981.4 0.4
18 19.02 штиль 0 10 км слаб. снег 10/0 600 м
[As op]
-1.6 -3.6 86 -3 -3 1018.4 982.0 1
21 19.02 штиль 0 10 км слаб. снег 10/0 600 м
[As op]
-2.4 -4.4 86 -4 -4 1019.1 982.8 0.5
00 20.02 штиль 0 10 км слаб. снег 10/0 600 м
[As op]
-2.4 -4.4 86 -4 -3 1021.4 985.0 -4.5 2 12
03 20.02 штиль 0 20 км 9/0 1500 м
[Ac trans]
-0.1 -3.0 81 -1 +4 1022.7 986.2 0.0
06 20.02 штиль 0 20 км 8/0 1500 м
[Ac trans]
+1.4 -3.0 72 +1 +4 1022.3 985.9 0.0
09 20.02 штиль 0 20 км 6/0 1500 м
[Ac trans]
+1.4 -2.5 75 +1 +1 1024.0 987.5
12 20.02 штиль 0 20 км 6/6 600 м
[Sc diur, vesp]
-1.2 -3.8 82 -2 -2 1025.8 989.2 +4.2 0.0
15 20.02 штиль 0 20 км 10/0
[Ci sp]
-4.4 -6.7 84 -5 -5 1027.2 990.6
18 20.02 штиль 0 20 км 10/0
[Ci sp]
-7.5 -9.8 84 -8 -8 1027.9 991.3
21 20.02 штиль 0 20 км ясно -9.8 -11.7 86 -10 -10 1028.9 991.3
00 21.02 штиль 0 20 км ясно -10.0 -11.7 87 -10 -7 1028.8 992.1 -12.3
03 21.02 штиль 0 20 км ясно -3.6 -6.7 79 -5 +7 1026.9 990.3
06 21.02 штиль 0 20 км ясно +4.2 -0.2 73 +3 +10 1024.0 987.4
09 21.02 штиль 0 20 км ясно +4.5 -3.0 58 +4 +4 1023.1 986.6
12 21.02 штиль 0 20 км ясно -2.5 -5.4 80 -4 -4 1024.4 987.9 +7.9
15 21.02 штиль 0 20 км ясно -5.4 -7.8 83 -6 -6 1024.6 988.1
18 21.02 штиль 0 20 км ясно -8.0 -9.8 87 -9 -9 1024.2 987.7
21 21.02 штиль 0 20 км ясно -9.6 -11.7 85 -10 -10 1024.1 987.5
00 22.02 штиль 0 20 км ясно -9.5 -11.7 84 -10 -7 1025.5 988.9 -12.0 600
03 22.02 штиль 0 20 км ясно -1.2 -5.0 75 -2 +10 1023.9 987.4
06 22.02 штиль 0 20 км ясно +6.6 0.0 63 +6 +13 1020.7 984.3
09 22.02 штиль 0 20 км ясно +6.4 -0.7 60 +6 +6 1020.2 983.8
12 22.02 штиль 0 20 км ясно -0.4 -4.1 76 -1 -1 1022.2 985.8 +9.4
15 22.02 штиль 0 20 км ясно -4.2 -6.7 83 -5 -5 1023.9 987.4
18 22.02 штиль 0 20 км ясно -6.2 -8.2 86 -7 -7 1025.2 988.6
21 22.02 штиль 0 20 км ясно -8.0 -9.8 87 -9 -9 1025.8 989.2
00 23.02 штиль 0 20 км ясно -7.6 -9.8 84 -8 -5 1026.9 990.4 -10.7
03 23.02 штиль 0 20 км ясно +0.4 -4.4 70 -0 +12 1025.4 988.8
06 23.02 штиль 0 20 км ясно +8.8 -0.7 51 +9 +16 1022.2 985.8
09 23.02 штиль 0 20 км ясно +6.4 -2.5 53 +6 +6 1021.0 984.6
12 23.02 штиль 0 20 км ясно -0.6 -4.1 77 -2 -2 1022.1 985.7 +10.5
15 23.02 штиль 0 20 км ясно -3.5 -6.0 83 -5 -5 1023.1 986.7
18 23.02 штиль 0 20 км ясно -6.0 -7.8 87 -7 -7 1022.6 986.1
21 23.02 штиль 0 20 км ясно -7.2 -9.4 84 -8 -8 1022.1 985.7

 

Местоположение метеостанции Канге (КНДР): широта 40.97 долгота 126.60 высота над уровнем моря 306 м.

В архиве по умолчанию представлена погода в Канге за последнюю неделю. Архивные данные за месяц целиком и за предыдущие месяцы, начиная с января 2011 года, Вы можете получить, выбрав интересующий диапазон дат из раскрывающегося списка и нажав кнопку "Ввод!".


*Определитесь, кто Вы:
робот инопланетянин человек

Внимание! Время в таблицах - всемирное. Для получения местного времени необходимо прибавить поправку, которая равна 9 ч.

Смотрите также архив погоды в соседних городах и на ближайших метеорологических станциях:

Погода в Цзиане (Цзяньси, Китай) (40 км)
Погода в Джангджине (КНДР) (86 км)
Погода в Линьцзяне (Гирин, Китай) (87 км)
Погода в Чунгане (КНДР) (93 км)
Погода в Хыйчхоне (КНДР) (94 км)
Погода в Пунгсане (КНДР) (131 км)
Погода в Чанбае (Гирин, Китай) (137 км)
Погода в Хесене (КНДР) (139 км)
Погода в Хамхыне (КНДР) (141 км)
Погода на Плотине Сапунг (КНДР) (152 км)

Пояснения к столбцам:

Ветер - указаны скорость ветра в м/с - средняя за 10 мин, порывы в срок и между сроками (в фигурных скобках) и направление, откуда дует ветер: С - северный, СВ - северо-восточный, В - восточный, ЮВ - юго-восточный, Ю - южный, ЮЗ - юго-западный, З - западный, СЗ - северо-западный.
Видимость - горизонтальная дальность видимости в метрах или километрах. При видимости от 1 до 10 км при отсутствии осадков обычно наблюдается дымка, при ухудшении видимости до 1 км и менее - туман. В сухую погоду видимость может ухудшаться дымом, пылью или мглою.
Явления - указаны атмосферные явления, наблюдавшиеся в срок или в последний час перед сроком; фигурными скобками обозначены явления, наблюдавшиеся между сроками (за 1-3 часа до срока); квадратными скобками обозначены град или гололедные отложения с указанием их диаметра в мм.
Облачность - указаны через наклонную черту общая и нижняя облачность в баллах и высота нижней границы облаков в метрах; квадратными скобками обозначены формы облаков: Ci - перистые, Cs - перисто-слоистые, Cc - перисто-кучевые, Ac - высококучевые, As - высокослоистые, Sc - слоисто-кучевые, Ns - слоисто-дождевые, Cu - кучевые, Cb - кучево-дождевые. Подробнее классификацию облаков см. в Атласе облаков (PDF).
T - Температура воздуха - температура, измеренная на высоте 2 м над землей.
Td - Температура точки росы - температура, при понижении до которой содержащийся в воздухе водяной пар достигнет насыщения.
f - Относительная влажность воздуха - влажноcть воздуха, измеренная на высоте 2 м над землей.
Te - Эффективная температура - температура, которую ощущает одетый по сезону человек в тени. Характеристика душности погоды. При расчете учитывается влияние влажности воздуха и скорости ветра на теплоощущения человека.
Tes - Эффективная температура на солнце - температура, которую ощущает человек, с поправкой на солнечный нагрев. Характеристика знойности погоды. Зависит от высоты солнца над горизонтом, облачности и скорости ветра. Ночью, в пасмурную погоду, а также при ветре 12 м/с и более поправка равна нулю.
P - Атмосферное давление - приведенное к уровню моря атмосферное давление.
Po - Атмосферное давление - измеренное на уровне метеостанции атмосферное давление.
Tmin - Минимальная температура - минимум температуры воздуха на высоте 2 м над землей.
Tmax - Максимальная температура - максимум температуры воздуха на высоте 2 м над землей.
R - Количество осадков - Количество выпавших осадков за период времени, мм. При наведении курсора мыши на число - период времени, за который выпало указанное количество осадков.
R24 - Количество осадков - Количество выпавших осадков за 24 часа, мм.
S - Снежный покров - Высота снежного покрова, см. При наведении курсора мыши на число - состояние снежного покрова и степень покрытия местности в баллах.